ONEWEB-0110, 47260

Orbit data source: Space-Track

ONEWEB-0110, 47260 is a payload satellite owned by One Web (UK) in LEO that was launched on Fri, 18 Dec 2020 UTC via a SOYUZ-2-1B launch vehicle from the Vostochny Cosmodrome (VOSTO). Payload-class satellites include a variety of spacecraft equipped with specific instruments for various scientific and technological missions. These include communications satellites like Starlink; space stations such as the ISS; scientific satellites like the Hubble; Earth observation satellites from companies like Planet Labs, Umbra, and HawkEye 360; GPS; miniature CubeSats for education and research; and military/defense satellites.

Loading next visibility...
Identifier
47260, 2020-100C
Orbit
LEO
Country
Flag of UKUK
Related business
Manufacturer
One Web
Mission
Operational Commercial Communications
Bus & Motor
ARROW, Unknown motor
Mass
148 kg wet, ~140 kg dry
Launch date (UTC)
2020-12-18 (5 years ago)
Launch vehicle
SOYUZ-2-1B
Launch site
Vostochny Cosmodrome (VOSTO)
Object type
Payload
Rocket body
Debris
Shape & HBR
Trap Box + 2 Pan, 6.7 m
Radar Cross Section
3.464 m², Large (>1 m²)

Expand to show TLE details & history
Last TLE update: 10 hours ago

TLE from 10 hours ago
0 ONEWEB-0110
1 47260U 20100C   26095.28680914  .00000368  00000-0  98677-3 0  9999
2 47260  87.9016   5.1183 0002020  82.2221 277.9137 13.12442967255165
Epoch: 2026-04-05T06:53Z
TLE epoch observation values (Epoch: 2026-04-05T06:53:00.309Z)
Latitude
-0.00002°
Longitude
68.27261°
Altitude
1,216.403 km
Speed
7.246 km/s
True Right ascension
00h 20m 28s
True Declination
0° 00' 00"
Sunlit
Object was in daylight at epoch
Visualization orbit readout
Latitude
Unknown
Longitude
Unknown
Altitude
Unknown
Speed
Unknown
Apparent Right ascension
Unknown
Apparent Declination
Unknown
Sunlit
N/A
Visualization observer readout
Local Sidereal Time
22:46:14
Azimuth
Unknown
Elevation
Unknown
Doppler factor
Unknown
Orbital elements
Apogee altitude
1,212.373 km
Perigee altitude
1,209.307 km
Semi-major axis
7,588.977 km
Eccentricity
0.0002
Inclination
87.9016°
RAAN
5.1183°
Arg. of periapsis
82.2221°
True anomaly
277.89077°
Mean anomaly
277.9137°
Eccentric anomaly
277.90224°
Mean motion
3.28298 °/min
Orbital period
109.66 mins
BSTAR
0.00098677
Loading maneuver chart data...
Computing Atmospheric mass density...
Loading historical data...
Loading historical data...
Loading historical data...
Loading historical data...
Loading historical data...
Loading historical data...
Loading historical data...

Documentation

Showing up to 5 results
|